• In Belarus
  • List of Countries
  • For 7 days
  • Water Temperature
  • Satellite Maps
  • Weather Map
  • Weather Widgets
  • user-avatar
    Login

    Hourly Weather Rawson

    Today, 18 December, Monday

    Time Temperature Precipitation Wind Pressure Humidity
    00:00 +19°C° 0 mm 9 mps 758 mmHg 22%
    01:00 +20°C° 0 mm 7 mps 759 mmHg 22%
    02:00 +20°C° 0 mm 6 mps 758 mmHg 21%
    03:00 +19°C° 0 mm 6 mps 758 mmHg 24%
    04:00 +19°C° 0 mm 6 mps 758 mmHg 26%
    05:00 +17°C° 0 mm 6 mps 758 mmHg 29%
    06:00 +19°C° 0 mm 6 mps 759 mmHg 28%
    07:00 +20°C° 0 mm 6 mps 759 mmHg 26%
    08:00 +21°C° 0 mm 6 mps 759 mmHg 25%
    09:00 +22°C° 0 mm 5 mps 759 mmHg 23%
    10:00 +23°C° 0 mm 4 mps 759 mmHg 21%
    11:00 +25°C° 0 mm 3 mps 759 mmHg 19%
    12:00 +26°C° 0 mm 4 mps 759 mmHg 18%
    13:00 +27°C° 0 mm 4 mps 758 mmHg 16%
    14:00 +29°C° 0 mm 5 mps 758 mmHg 15%
    15:00 +29°C° 0 mm 5 mps 758 mmHg 15%
    16:00 +29°C° 0 mm 6 mps 757 mmHg 14%
    17:00 +30°C° 0 mm 6 mps 757 mmHg 14%
    18:00 +29°C° 0 mm 6 mps 757 mmHg 15%
    19:00 +28°C° 0 mm 7 mps 757 mmHg 16%
    20:00 +27°C° 0 mm 7 mps 757 mmHg 17%
    21:00 +26°C° 0 mm 7 mps 757 mmHg 20%
    22:00 +24°C° 0 mm 7 mps 758 mmHg 24%
    23:00 +22°C° 0 mm 7 mps 758 mmHg 28%

    Tomorrow, 19 December, Tuesday

    Time Temperature Precipitation Wind Pressure Humidity
    00:00 +22°C° 0 mm 6 mps 758 mmHg 30%
    01:00 +21°C° 0 mm 5 mps 758 mmHg 33%
    02:00 +21°C° 0 mm 4 mps 757 mmHg 35%
    03:00 +21°C° 0 mm 4 mps 757 mmHg 37%
    04:00 +20°C° 0 mm 3 mps 757 mmHg 38%
    05:00 +20°C° 0 mm 2 mps 757 mmHg 40%
    06:00 +22°C° 0 mm 3 mps 758 mmHg 35%
    07:00 +23°C° 0 mm 4 mps 758 mmHg 29%
    08:00 +26°C° 0 mm 5 mps 758 mmHg 24%
    09:00 +27°C° 0 mm 4 mps 758 mmHg 23%
    10:00 +27°C° 0 mm 4 mps 758 mmHg 22%
    11:00 +28°C° 0 mm 3 mps 758 mmHg 21%
    12:00 +29°C° 0 mm 4 mps 757 mmHg 20%
    13:00 +30°C° 0 mm 4 mps 756 mmHg 19%
    14:00 +32°C° 0 mm 4 mps 756 mmHg 17%
    15:00 +33°C° 0 mm 5 mps 755 mmHg 18%
    16:00 +33°C° 0 mm 6 mps 754 mmHg 18%
    17:00 +34°C° 0 mm 7 mps 753 mmHg 19%
    18:00 +32°C° 0.1 mm 7 mps 753 mmHg 23%
    19:00 +30°C° 0.1 mm 7 mps 752 mmHg 27%
    20:00 +28°C° 0.1 mm 8 mps 752 mmHg 31%
    21:00 +28°C° 0.4 mm 7 mps 751 mmHg 33%
    22:00 +28°C° 0.4 mm 7 mps 751 mmHg 35%
    23:00 +27°C° 0.4 mm 7 mps 751 mmHg 37%

    Day after tomorrow, 20 December, Wednesday

    Time Temperature Precipitation Wind Pressure Humidity
    00:00 +27°C° 0 mm 6 mps 751 mmHg 38%
    01:00 +26°C° 0 mm 6 mps 750 mmHg 39%
    02:00 +26°C° 0 mm 5 mps 750 mmHg 40%
    03:00 +26°C° 0 mm 5 mps 749 mmHg 40%
    04:00 +25°C° 0 mm 5 mps 749 mmHg 39%
    05:00 +25°C° 0 mm 4 mps 749 mmHg 38%
    06:00 +27°C° 0 mm 4 mps 749 mmHg 33%
    07:00 +28°C° 0 mm 4 mps 749 mmHg 28%
    08:00 +30°C° 0 mm 4 mps 749 mmHg 24%
    09:00 +32°C° 0 mm 4 mps 749 mmHg 21%
    10:00 +34°C° 0 mm 5 mps 748 mmHg 19%
    11:00 +35°C° 0 mm 6 mps 748 mmHg 16%
    12:00 +35°C° 0 mm 7 mps 747 mmHg 16%
    13:00 +36°C° 0 mm 7 mps 747 mmHg 16%
    14:00 +38°C° 0 mm 8 mps 747 mmHg 16%
    15:00 +35°C° 0.4 mm 9 mps 747 mmHg 19%
    16:00 +33°C° 0.4 mm 10 mps 748 mmHg 23%
    17:00 +31°C° 0.4 mm 11 mps 748 mmHg 26%
    18:00 +29°C° 0 mm 10 mps 749 mmHg 24%
    19:00 +28°C° 0 mm 9 mps 749 mmHg 22%
    20:00 +27°C° 0 mm 8 mps 750 mmHg 19%
    21:00 +24°C° 0 mm 9 mps 751 mmHg 19%
    22:00 +22°C° 0 mm 10 mps 753 mmHg 19%
    23:00 +21°C° 0 mm 11 mps 754 mmHg 19%

    21 December, Thursday

    Time Temperature Precipitation Wind Pressure Humidity
    00:00 +18°C° 0 mm 11 mps 754 mmHg 21%
    01:00 +17°C° 0 mm 11 mps 755 mmHg 23%
    02:00 +14°C° 0 mm 11 mps 756 mmHg 25%
    03:00 +14°C° 0 mm 10 mps 756 mmHg 27%
    04:00 +13°C° 0 mm 10 mps 757 mmHg 28%
    05:00 +13°C° 0 mm 9 mps 757 mmHg 30%
    06:00 +15°C° 0 mm 9 mps 757 mmHg 29%
    07:00 +16°C° 0 mm 9 mps 757 mmHg 28%
    08:00 +17°C° 0 mm 9 mps 757 mmHg 26%
    09:00 +18°C° 0 mm 8 mps 757 mmHg 23%
    10:00 +21°C° 0 mm 7 mps 756 mmHg 20%
    11:00 +22°C° 0 mm 6 mps 756 mmHg 17%
    12:00 +24°C° 0 mm 6 mps 755 mmHg 15%
    13:00 +26°C° 0 mm 6 mps 754 mmHg 14%
    14:00 +28°C° 0 mm 6 mps 753 mmHg 13%
    15:00 +27°C° 0 mm 8 mps 752 mmHg 15%
    16:00 +26°C° 0 mm 9 mps 752 mmHg 17%
    17:00 +26°C° 0 mm 10 mps 751 mmHg 19%
    18:00 +24°C° 0 mm 9 mps 751 mmHg 20%
    19:00 +24°C° 0 mm 9 mps 751 mmHg 22%
    20:00 +24°C° 0 mm 8 mps 751 mmHg 23%
    21:00 +23°C° 0 mm 8 mps 751 mmHg 26%
    22:00 +22°C° 0 mm 7 mps 752 mmHg 30%
    23:00 +20°C° 0 mm 6 mps 752 mmHg 33%

    22 December, Friday

    Time Temperature Precipitation Wind Pressure Humidity
    00:00 +20°C° 0 mm 6 mps 752 mmHg 32%
    01:00 +18°C° 0 mm 7 mps 752 mmHg 31%
    02:00 +17°C° 0 mm 7 mps 752 mmHg 31%
    03:00 +16°C° 0.2 mm 8 mps 753 mmHg 32%
    04:00 +15°C° 0.2 mm 9 mps 753 mmHg 34%
    05:00 +13°C° 0.2 mm 10 mps 753 mmHg 35%
    06:00 +13°C° 0 mm 11 mps 754 mmHg 32%
    07:00 +14°C° 0 mm 12 mps 754 mmHg 28%
    08:00 +15°C° 0 mm 12 mps 755 mmHg 24%
    09:00 +15°C° 0 mm 12 mps 755 mmHg 23%
    10:00 +17°C° 0 mm 12 mps 755 mmHg 21%
    11:00 +17°C° 0 mm 12 mps 755 mmHg 20%
    12:00 +17°C° 0 mm 12 mps 755 mmHg 19%
    13:00 +17°C° 0 mm 11 mps 755 mmHg 18%
    14:00 +18°C° 0 mm 11 mps 755 mmHg 17%
    15:00 +18°C° 0 mm 11 mps 755 mmHg 16%
    16:00 +18°C° 0 mm 10 mps 755 mmHg 16%
    17:00 +18°C° 0 mm 10 mps 755 mmHg 15%
    18:00 +18°C° 0 mm 9 mps 756 mmHg 16%
    19:00 +18°C° 0 mm 8 mps 756 mmHg 17%
    20:00 +17°C° 0 mm 7 mps 757 mmHg 18%
    21:00 +17°C° 0 mm 7 mps 757 mmHg 20%
    22:00 +17°C° 0 mm 6 mps 758 mmHg 22%
    23:00 +16°C° 0 mm 6 mps 759 mmHg 23%

    23 December, Saturday

    Time Temperature Precipitation Wind Pressure Humidity
    00:00 +15°C° 0 mm 7 mps 759 mmHg 26%
    01:00 +13°C° 0 mm 8 mps 759 mmHg 28%
    02:00 +13°C° 0 mm 9 mps 759 mmHg 31%
    03:00 +12°C° 0 mm 8 mps 760 mmHg 32%
    04:00 +12°C° 0 mm 8 mps 760 mmHg 34%
    05:00 +11°C° 0 mm 8 mps 761 mmHg 36%
    06:00 +12°C° 0 mm 8 mps 761 mmHg 34%
    07:00 +14°C° 0 mm 7 mps 761 mmHg 33%
    08:00 +14°C° 0 mm 7 mps 761 mmHg 31%
    09:00 +16°C° 0 mm 6 mps 761 mmHg 28%
    10:00 +17°C° 0 mm 5 mps 761 mmHg 26%
    11:00 +19°C° 0 mm 4 mps 760 mmHg 23%
    12:00 +20°C° 0 mm 4 mps 760 mmHg 21%
    13:00 +21°C° 0 mm 5 mps 759 mmHg 19%
    14:00 +23°C° 0 mm 5 mps 758 mmHg 17%
    15:00 +25°C° 0 mm 5 mps 757 mmHg 16%
    16:00 +25°C° 0 mm 5 mps 757 mmHg 15%
    17:00 +26°C° 0 mm 5 mps 756 mmHg 14%
    18:00 +24°C° 0 mm 6 mps 755 mmHg 16%
    19:00 +23°C° 0 mm 7 mps 755 mmHg 18%
    20:00 +22°C° 0 mm 8 mps 754 mmHg 20%
    21:00 +21°C° 0 mm 8 mps 754 mmHg 25%
    22:00 +20°C° 0 mm 8 mps 754 mmHg 30%
    23:00 +18°C° 0 mm 8 mps 754 mmHg 34%
    Show more